Weather Roundup
Issued by NWS Chicago, IL

Home | Current Version | Previous Version | Text Only | Print | Product List | Glossary On
Versions: 1 2 3 4 5 6 7 8 9 10 11 12 13 14 15 16 17 18 19 20 21 22 23 24 25 26 27 28 29 30 31 32 33 34 35 36 37 38 39 40 41 42 43 44 45 46 47 48 49 50
000
NZUS59 KLOT 290210
HRRLOT

CHICAGO AREA WEATHER ROUNDUP
NATIONAL WEATHER SERVICE CHICAGO/ROMEOVILLE IL
800 PM CST SUN DEC 28 2014

NOTE: "FAIR" INDICATES FEW OR NO CLOUDS BELOW 12,000 FEET WITH NO
SIGNIFICANT WEATHER AND/OR OBSTRUCTIONS TO VISIBILITY.

* THESE STATIONS ARE NOT UNDER NWS QUALITY CONTROL. THEY ALSO MAY NOT
  REPORT WEATHER SUCH AS PRECIPITATION OR FOG.

ILZ005-006-012>014-019>023-290300-
NORTHEAST ILLINOIS

CITY           SKY/WX    TMP DP  RH WIND       PRES   REMARKS
OHARE          PTCLDY    27  18  69 W3        30.21R
MIDWAY         CLEAR     30  18  60 SW7       30.22R WCI  23
AURORA         CLEAR     24  17  74 CALM      30.22R
LANSING*       CLEAR     24  18  77 CALM      30.22R
JOLIET*        CLEAR     20  16  84 CALM      30.22S
WAUKEGAN       CLEAR     21  17  84 CALM      30.21R
DUPAGE AIRPORT CLEAR     24  17  74 W3        30.21R
WHEELING       CLEAR     25  17  72 CALM      30.23R
KANKAKEE*      CLEAR     25  21  85 CALM      30.23R
MORRIS*        CLEAR     26  20  76 SW3       30.21F
LEWIS AIRPORT* CLEAR     26  17  68 SW5       30.22R WCI  20
NORTHERLY IS     N/A     31  18  58 SW6         N/A  WCI  25
$$

WIZ051-052-058>065-066-070>072-290300-
SOUTHEAST WISCONSIN

CITY           SKY/WX    TMP DP  RH WIND       PRES   REMARKS
MILWAUKEE      PTCLDY    27  18  69 N5        30.21R WCI  22
KENOSHA*       CLEAR     27  19  72 N5        30.21R WCI  22
RACINE*        CLEAR     27  17  66 NW5       30.23R WCI  22
BURLINGTON     CLEAR     20  17  88 CALM      30.21R
WAUKESHA       CLEAR     19  16  86 CALM      30.21R
WEST BEND      CLOUDY    25  21  86 CALM      30.20S
$$

INZ001>003-010>013-019-020-290300-
NORTHWEST INDIANA

CITY           SKY/WX    TMP DP  RH WIND       PRES   REMARKS
GARY*          CLEAR     27  16  63 VRB7      30.23R WCI  19
MICHIGAN CITY* NOT AVBL
RENSSELAER*    NOT AVBL
VALPARAISO     CLEAR     25  18  74 W6        30.22R WCI  18
$$

LMZ740>746-290300-
SOUTHERN LAKE MICHIGAN

STATION/POSITION TIME  SKY/WX   TEMP WIND        PRES    VSBY
                                AIR  DIR/SP/G
                 (UTC)          (F)  (DEG/KT/KT) (MB)    (MI)
HARRISON CRIB    0200            32  260/  8/  9   N/A
BURNHAM HARBOR   0200            31  200/  3/  5   N/A
CALUMET HARBOR   0200            29  220/  4/  5 1022.0R
BURNS HARBOR     NOT AVBL
MICHIGAN CITY    0200            29  190/  7/  8   N/A
$$

ABBREVIATIONS USED IN REMARKS
   TC - TEMPERATURE IN CELSIUS
  WCI - WIND CHILL INDEX
   HX - HEAT INDEX
  VSB - VISIBILITY
$$


USA.gov is the U.S. government's official web portal to all federal, state and local government web resources and services.